Istres, France

6:06 AM CEST on June 27, 2017 (GMT +0200)
Le Tube Air Base

Weather History for LFMI - April, 2014

Change the Weather History Date:

Monday, April 14, 2014

  Actual Average (LFML) Record (LFML)
Temperature  
Mean Temperature 62 °F -  
Max Temperature 76 °F 63 °F 75 °F (2014)
Min Temperature 49 °F 46 °F 35 °F (1998)
Degree Days  
Heating Degree Days 2    
Growing Degree Days 12 (Base 50)    
Moisture  
Dew Point 38 °F    
Average Humidity 36    
Maximum Humidity 71    
Minimum Humidity 10    
Precipitation  
Precipitation 0.00 in - - ()
Sea Level Pressure  
Sea Level Pressure 30.01 in    
Wind  
Wind Speed 11 mph ()    
Max Wind Speed 26 mph    
Max Gust Speed 38 mph    
Visibility 6.3 miles    
Events      
Averages and records for this station are not official NWS values.
T = Trace of Precipitation, MM = Missing Value Source: Averaged Metar Reports

Daily Weather History Graph

Daily Weather History Graph

Search for Another Location

Airport or City:

Trip Planner

Search our weather history database for the weather conditions in past years. The results will help you decide how hot, cold, wet, or windy it might be!

Date:

Astronomy

Apr. 14, 2014 Rise Set
Actual Time 6:59 AM CEST 8:22 PM CEST
Civil Twilight 6:30 AM CEST 8:51 PM CEST
Nautical Twilight 5:54 AM CEST 9:27 PM CEST
Astronomical Twilight 5:16 AM CEST 10:05 PM CEST
Moon 7:44 PM CEST (4/14) 6:24 AM CEST (4/14)
Length of Visible Light 14h 21m
Length of Day
13h 22m
Waxing Gibbous, 99% of the Moon is Illuminated
Apr 14
Waxing Gibbous
Apr 15
Full
Apr 22
Last Quarter
Apr 29
New
May 7
First Quarter

Hourly Weather History & Observations

Time (CEST) Temp. Dew Point Humidity Pressure Visibility Wind Dir Wind Speed Gust Speed Precip Events Conditions
12:00 AM 62 °F 36 °F 27% 30.04 in 37 mi NNW 8.1 mph - -   Clear
12:00 AM 62.6 °F 37.4 °F 39% 30.04 in 6.2 mi NNW 8.1 mph - N/A   Unknown
12:30 AM 62.6 °F 35.6 °F 37% 30.04 in 6.2 mi North 8.1 mph - N/A   Unknown
1:00 AM 60 °F 37 °F 30% 30.05 in 37 mi North 6.9 mph - -   Clear
1:00 AM 60.8 °F 37.4 °F 42% 30.04 in 6.2 mi North 6.9 mph - N/A   Unknown
1:30 AM 57.2 °F 37.4 °F 48% 30.04 in 6.2 mi Variable 2.3 mph - N/A   Unknown
2:00 AM 56 °F 40 °F 43% 30.06 in 37 mi NNE 5.8 mph - -   Clear
2:00 AM 55.4 °F 39.2 °F 54% 30.04 in 6.2 mi NNE 5.8 mph - N/A   Unknown
2:30 AM 53.6 °F 39.2 °F 58% 30.04 in 6.2 mi Calm Calm - N/A   Unknown
3:00 AM 58 °F 39 °F 37% 30.05 in 37 mi North 8.1 mph - -   Clear
3:00 AM 57.2 °F 39.2 °F 51% 30.04 in 6.2 mi North 8.1 mph - N/A   Unknown
3:30 AM 59.0 °F 39.2 °F 48% 30.04 in 6.2 mi North 9.2 mph - N/A   Unknown
4:00 AM 53 °F 39 °F 48% 30.05 in 34 mi NNE 8.1 mph - -   Clear
4:00 AM 53.6 °F 39.2 °F 58% 30.04 in 6.2 mi NNE 8.1 mph - N/A   Unknown
4:30 AM 51.8 °F 39.2 °F 62% 30.04 in 6.2 mi NNE 9.2 mph - N/A   Unknown
5:00 AM 54 °F 40 °F 48% 30.04 in 28 mi NNE 9.2 mph - -   Clear
5:00 AM 53.6 °F 41.0 °F 62% 30.04 in 6.2 mi NNE 9.2 mph - N/A   Unknown
5:30 AM 53.6 °F 41.0 °F 62% 30.04 in 6.2 mi NNW 6.9 mph - N/A   Unknown
6:00 AM 50 °F 42 °F 64% 30.05 in 22 mi NNW 6.9 mph - -   Clear
6:00 AM 50.0 °F 41.0 °F 71% 30.04 in 6.2 mi NNW 6.9 mph - N/A   Unknown
6:30 AM 55.4 °F 41.0 °F 58% 30.04 in 6.2 mi North 6.9 mph - N/A   Unknown
7:00 AM 56 °F 41 °F 46% 30.06 in 25 mi North 8.1 mph - -   Clear
7:00 AM 57.2 °F 41.0 °F 55% 30.04 in 6.2 mi North 8.1 mph - N/A   Unknown
7:30 AM 55.4 °F 41.0 °F 58% 30.06 in 6.2 mi North 9.2 mph - N/A   Unknown
8:00 AM 57 °F 42 °F 45% 30.07 in 25 mi North 6.9 mph - -   Clear
8:00 AM 57.2 °F 41.0 °F 55% 30.06 in 6.2 mi North 6.9 mph - N/A   Unknown
8:30 AM 59.0 °F 42.8 °F 55% 30.06 in 6.2 mi North 5.8 mph - N/A   Unknown
9:00 AM 60 °F 43 °F 41% 30.07 in 28 mi North 8.1 mph - -   Clear
9:00 AM 59.0 °F 42.8 °F 55% 30.06 in 6.2 mi North 8.1 mph - N/A   Unknown
9:30 AM 60.8 °F 42.8 °F 52% 30.06 in 6.2 mi North 11.5 mph - N/A   Unknown
10:00 AM 62 °F 42 °F 36% 30.07 in 34 mi North 11.5 mph - -   Clear
10:00 AM 60.8 °F 42.8 °F 52% 30.06 in 6.2 mi North 11.5 mph - N/A   Unknown
10:30 AM 64.4 °F 42.8 °F 45% 30.06 in 6.2 mi North 10.4 mph - N/A   Unknown
11:00 AM 65 °F 42 °F 32% 30.06 in 34 mi North 12.7 mph - -   Clear
11:00 AM 64.4 °F 42.8 °F 45% 30.06 in 6.2 mi North 12.7 mph - N/A   Unknown
11:30 AM 66.2 °F 42.8 °F 43% 30.06 in 6.2 mi North 11.5 mph - N/A   Unknown
12:00 PM 68 °F 42 °F 28% 30.06 in 25 mi North 13.8 mph - -   Clear
12:00 PM 68.0 °F 42.8 °F 40% 30.04 in 6.2 mi North 13.8 mph - N/A   Unknown
12:30 PM 68.0 °F 42.8 °F 40% 30.04 in 6.2 mi North 12.7 mph - N/A   Partly Cloudy
1:00 PM 70 °F 42 °F 25% 30.04 in 11 mi North 10.4 mph - -   Clear
1:00 PM 69.8 °F 42.8 °F 38% 30.04 in 6.2 mi North 10.4 mph - N/A   Unknown
1:30 PM 71.6 °F 41.0 °F 33% 30.01 in 6.2 mi NNW 12.7 mph - N/A   Unknown
2:00 PM 72 °F 43 °F 25% 30.02 in 31 mi NNW 13.8 mph - -   Clear
2:00 PM 73.4 °F 42.8 °F 33% 30.01 in 6.2 mi NNW 13.8 mph - N/A   Unknown
2:30 PM 73.4 °F 41.0 °F 31% 30.01 in 6.2 mi NNW 17.3 mph - N/A   Unknown
3:00 PM 74 °F 42 °F 21% 30.00 in 28 mi NNW 16.1 mph - -   Clear
3:00 PM 73.4 °F 42.8 °F 33% 29.98 in 6.2 mi NNW 16.1 mph - N/A   Unknown
3:30 PM 73.4 °F 39.2 °F 29% 29.98 in 6.2 mi NNW 20.7 mph - N/A   Unknown
4:00 PM 75 °F 34 °F 13% 29.98 in 31 mi NNW 24.2 mph - -   Clear
4:00 PM 75.2 °F 33.8 °F 22% 29.98 in 6.2 mi NNW 24.2 mph - N/A   Unknown
4:30 PM 75.2 °F 33.8 °F 22% 29.95 in 6.2 mi NNW 23.0 mph 36.8 mph N/A   Unknown
5:00 PM 76 °F 31 °F 10% 29.96 in 25 mi NNW 20.7 mph - -   Clear
5:00 PM 75.2 °F 30.2 °F 19% 29.95 in 6.2 mi NNW 20.7 mph - N/A   Unknown
5:30 PM 77.0 °F 33.8 °F 21% 29.92 in 6.2 mi NNW 24.2 mph - N/A   Unknown
6:00 PM 76 °F 33 °F 12% 29.93 in 25 mi NNW 26.5 mph - -   Clear
6:00 PM 75.2 °F 33.8 °F 22% 29.92 in 6.2 mi NNW 26.5 mph - N/A   Unknown
6:30 PM 75.2 °F 30.2 °F 19% 29.92 in 6.2 mi NNW 26.5 mph 38.0 mph N/A   Unknown
7:00 PM 74 °F 29 °F 10% 29.92 in 25 mi NNW 21.9 mph - -   Clear
7:00 PM 75.2 °F 30.2 °F 19% 29.92 in 6.2 mi NNW 21.9 mph - N/A   Unknown
7:30 PM 73.4 °F 28.4 °F 19% 29.92 in 6.2 mi North 18.4 mph - N/A   Unknown
8:00 PM 71 °F 30 °F 12% 29.93 in 34 mi North 18.4 mph - -   Clear
8:00 PM 71.6 °F 30.2 °F 22% 29.92 in 6.2 mi North 18.4 mph - N/A   Unknown
8:30 PM 69.8 °F 28.4 °F 21% 29.92 in 6.2 mi NNW 18.4 mph - N/A   Unknown
9:00 PM 69 °F 25 °F 10% 29.94 in 37 mi NNW 16.1 mph - -   Clear
9:00 PM 68.0 °F 24.8 °F 20% 29.92 in 6.2 mi NNW 16.1 mph - N/A   Unknown
9:30 PM 68.0 °F 24.8 °F 20% 29.95 in 6.2 mi North 24.2 mph - N/A   Unknown
10:00 PM 68 °F 32 °F 16% 29.95 in 37 mi North 24.2 mph - -   Clear
10:00 PM 68.0 °F 32.0 °F 26% 29.95 in 6.2 mi North 24.2 mph - N/A   Unknown
10:30 PM 66.2 °F 37.4 °F 35% 29.95 in 6.2 mi North 21.9 mph - N/A   Unknown
11:00 PM 66 °F 40 °F 26% 29.95 in 37 mi North 20.7 mph - -   Clear
11:00 PM 66.2 °F 39.2 °F 37% 29.95 in 6.2 mi North 20.7 mph - N/A   Unknown
11:30 PM 66.2 °F 39.2 °F 37% 29.95 in 6.2 mi NNW 23.0 mph - N/A   Unknown